Location: Hurecourt
(47.9030°N, 6.0653°E)
Time: 08:51:26
(UTC+00:00)

Cosmos 1666 - Pass Details

Date: 14 July 2020
Orbit: 497 x 521 km, 82.5° (Epoch: 14 August)

Event Time Altitude Azimuth Distance (km) Brightness Sun altitude
Exits shadow 02:48:04 12° 235° (SW) 1,618 4.6 -8.9°
Maximum altitude 02:50:53 25° 288° (WNW) 1,065 4.1 -8.6°
Drops below altitude 10° 02:54:03 10° 345° (NNW) 1,724 5.8 -8.2°
Sets 02:56:27 0° 359° (N) 2,610 7.0 -7.9°
